Timestamp,Temp,Chill,HIndex,Humid,Dewpt,Wind,HiWind,WindDir,Rain,RainRate,Barom,Solar,ET,UV,InsideTemp,InsideHumid
2016-03-25 00:00:00,45.8,45.8,45.8,81,40.3064362368194,1,5,270,0,0,29.496,0,0.001,0,60.7,46
2016-03-25 00:05:00,45.7,45.7,45.7,81,40.2089081797249,2,7,270,0,0,29.5,0,0,0,60.8,46
2016-03-25 00:10:00,45.5,45.5,45.5,81,40.0138504175157,3,9,292.5,0,0,29.502,0,0,0,60.5,46
2016-03-25 00:15:00,45.4,45.4,45.4,81,39.9163207123917,3,7,292.5,0,0,29.5,0,0,0,60.3,46
2016-03-25 00:20:00,45.3,45.3,45.3,81,39.8187904579153,3,8,292.5,0,0,29.5,0,0,0,60,46
2016-03-25 00:25:00,45.2,42.5801107028226,45.2,81,39.7212596540819,5,9,270,0,0,29.497,0,0,0,60,46
2016-03-25 00:30:00,45.1,45.1,45.1,81,39.6237283008867,3,8,292.5,0,0,29.497,0,0,0,59.7,46
2016-03-25 00:35:00,45,45,45,81,39.5261963983251,3,7,270,0,0,29.499,0,0,0,59.6,47
2016-03-25 00:40:00,45,45,45,81,39.5261963983251,2,7,270,0,0,29.508,0,0,0,59.7,46
2016-03-25 00:45:00,44.9,42.9789256802966,44.9,81,39.4286639463925,4,9,270,0,0,29.509,0,0,0,59.4,47
2016-03-25 00:50:00,44.7,41.9928312946975,44.7,82,39.5481788305442,5,10,292.5,0,0,29.506,0,0,0,59.4,47
2016-03-25 00:55:00,44.6,41.8753754130725,44.6,81,39.1360632943224,5,11,270,0,0,29.507,0,0,0,59.3,47
2016-03-25 01:00:00,44.5,44.5,44.5,82,39.352827965087,2,7,225,0,0,29.51,0,0.001,0,59,47
2016-03-25 01:05:00,44.4,44.4,44.4,82,39.2551517545713,2,8,270,0,0,29.507,0,0,0,59.1,47
2016-03-25 01:10:00,44.3,42.2858288945033,44.3,82,39.1574750255254,4,8,247.5,0,0,29.511,0,0,0,59.3,47
2016-03-25 01:15:00,44.3,44.3,44.3,82,39.1574750255254,3,7,270,0,0,29.507,0,0,0,59.1,47
2016-03-25 01:20:00,44.2,44.2,44.2,82,39.0597977779452,3,7,247.5,0,0,29.505,0,0,0,59.3,47
2016-03-25 01:25:00,44.1,44.1,44.1,82,38.9621200118265,2,8,225,0,0,29.508,0,0,0,59.3,46
2016-03-25 01:30:00,44.1,44.1,44.1,82,38.9621200118265,2,6,225,0,0,29.512,0,0,0,59.1,46
2016-03-25 01:35:00,44,41.9392805016067,44,82,38.8644417271652,4,9,292.5,0,0,29.514,0,0,0,59,46
2016-03-25 01:40:00,44,44,44,82,38.8644417271652,3,9,270,0,0,29.516,0,0,0,59,47
2016-03-25 01:45:00,43.9,43.9,43.9,82,38.7667629239572,3,9,270,0,0,29.517,0,0,0,58.7,46
2016-03-25 01:50:00,43.8,41.7082482396756,43.8,82,38.6690836021984,4,8,270,0,0,29.522,0,0,0,58.8,46
2016-03-25 01:55:00,43.8,43.8,43.8,82,38.6690836021984,3,10,270,0,0,29.521,0,0,0,58.4,46
2016-03-25 02:00:00,43.7,40.164642296838,43.7,82,38.5714037618845,6,11,315,0,0,29.524,0,0.001,0,58.1,47
2016-03-25 02:05:00,43.6,40.7008165968222,43.6,82,38.4737234030116,5,10,315,0,0,29.516,0,0,0,57.6,47
2016-03-25 02:10:00,43.5,41.361699846779,43.5,82,38.3760425255754,4,10,247.5,0,0,29.519,0,0,0,57.4,47
2016-03-25 02:15:00,43.4,40.4659048335721,43.4,82,38.2783611295718,5,10,270,0,0,29.52,0,0,0,57.1,48
2016-03-25 02:20:00,43.4,41.2461837158134,43.4,82,38.2783611295718,4,9,292.5,0,0,29.523,0,0,0,56.7,48
2016-03-25 02:25:00,43.3,41.1306675848479,43.3,82,38.1806792149968,4,10,292.5,0,0,29.521,0,0,0,56.8,48
2016-03-25 02:30:00,43.3,39.6882703098305,43.3,81,37.8680699972272,6,11,292.5,0,0,29.522,0,0,0,56.5,48
2016-03-25 02:35:00,43.2,40.2309930703221,43.2,81,37.7705282052773,5,10,292.5,0,0,29.522,0,0,0,56.7,48
2016-03-25 02:40:00,43.2,43.2,43.2,81,37.7705282052773,3,8,225,0,0,29.524,0,0,0,56.7,48
2016-03-25 02:45:00,43.1,43.1,43.1,81,37.6729858638729,3,7,225,0,0,29.519,0,0,0,57,48
2016-03-25 02:50:00,43.1,40.113537188697,43.1,81,37.6729858638729,5,12,270,0,0,29.524,0,0,0,56.7,48
2016-03-25 02:55:00,42.9,40.6686030609857,42.9,81,37.4778995326818,4,9,315,0,0,29.522,0,0,0,56.5,48
2016-03-25 03:00:00,42.8,39.7611695438219,42.8,81,37.3803555428859,5,13,270,0,0,29.522,0,0.001,0,56.4,48
2016-03-25 03:05:00,42.8,40.5530869300202,42.8,81,37.3803555428859,4,9,292.5,0,0,29.523,0,0,0,56.3,48
2016-03-25 03:10:00,42.7,42.7,42.7,81,37.2828110036168,2,8,315,0,0,29.528,0,0,0,56,48
2016-03-25 03:15:00,42.6,39.5262577805719,42.6,81,37.1852659148699,5,10,292.5,0,0,29.525,0,0,0,56.3,48
2016-03-25 03:20:00,42.6,40.3220546680891,42.6,81,37.1852659148699,4,8,292.5,0,0,29.525,0,0,0,56.3,48
2016-03-25 03:25:00,42.5,40.2065385371235,42.5,82,37.3992052293268,4,8,292.5,0,0,29.532,0,0,0,56.3,48
2016-03-25 03:30:00,42.4,40.091022406158,42.4,82,37.3015186474224,4,11,270,0,0,29.528,0,0,0,56,49
2016-03-25 03:35:00,42.4,42.4,42.4,82,37.3015186474224,3,9,270,0,0,29.526,0,0,0,56.1,49
2016-03-25 03:40:00,42.3,39.9755062751924,42.3,82,37.2038315469052,4,11,270,0,0,29.526,0,0,0,56.3,49
2016-03-25 03:45:00,42.2,42.2,42.2,82,37.1061439277711,2,7,270,0,0,29.526,0,0,0,56.4,48
2016-03-25 03:50:00,42.1,42.1,42.1,82,37.008455790016,3,7,270,0,0,29.526,0,0,0,56.4,48
2016-03-25 03:55:00,42,42,42,82,36.9107671336356,3,9,315,0,0,29.527,0,0,0,56.5,48
2016-03-25 04:00:00,41.9,41.9,41.9,83,37.1203941548024,3,9,315,0,0,29.53,0,0.001,0,56.5,48
2016-03-25 04:05:00,41.8,38.5866107275717,41.8,83,37.0225656547746,5,12,270,0,0,29.539,0,0,0,56.4,48
2016-03-25 04:10:00,41.8,41.8,41.8,83,37.0225656547746,3,9,225,0,0,29.537,0,0,0,56.3,48
2016-03-25 04:15:00,41.9,37.4276654828195,41.9,83,37.1203941548024,7,14,292.5,0,0,29.538,0,0,0,56,49
2016-03-25 04:20:00,41.9,38.7040666091967,41.9,83,37.1203941548024,5,15,270,0,0,29.543,0,0,0,55.5,49
2016-03-25 04:25:00,41.9,38.7040666091967,41.9,83,37.1203941548024,5,15,315,0,0,29.54,0,0,0,55.2,50
2016-03-25 04:30:00,41.9,38.0209683553043,41.9,83,37.1203941548024,6,13,292.5,0,0,29.54,0,0,0,55.1,50
2016-03-25 04:35:00,41.9,38.0209683553043,41.9,84,37.4244588759104,6,14,292.5,0,0,29.542,0,0,0,54.8,51
2016-03-25 04:40:00,41.9,38.0209683553043,41.9,84,37.4244588759104,6,13,292.5,0,0,29.548,0,0,0,54.3,51
2016-03-25 04:45:00,41.9,38.7040666091967,41.9,84,37.4244588759104,5,10,270,0,0,29.552,0,0,0,54.5,51
2016-03-25 04:50:00,41.9,38.7040666091967,41.9,84,37.4244588759104,5,9,292.5,0,0,29.553,0,0,0,54.5,51
2016-03-25 04:55:00,41.9,39.5134417513303,41.9,84,37.4244588759104,4,11,292.5,0,0,29.557,0,0,0,54.5,51
2016-03-25 05:00:00,41.9,39.5134417513303,41.9,84,37.4244588759104,4,11,270,0,0,29.557,0,0.001,0,54.6,51
2016-03-25 05:05:00,41.9,39.5134417513303,41.9,84,37.4244588759104,4,9,292.5,0,0,29.559,0,0,0,54.8,51
2016-03-25 05:10:00,41.9,39.5134417513303,41.9,84,37.4244588759104,4,10,315,0,0,29.559,0,0,0,54.9,51
2016-03-25 05:15:00,41.9,38.7040666091967,41.9,84,37.4244588759104,5,14,315,0,0,29.56,0,0,0,54.9,51
2016-03-25 05:20:00,41.9,38.0209683553043,41.9,84,37.4244588759104,6,14,292.5,0,0,29.565,0,0,0,54.5,51
2016-03-25 05:25:00,42,37.5481803908438,42,84,37.5224243530929,7,15,292.5,0,0,29.567,0,0,0,54.2,52
2016-03-25 05:30:00,42,38.1400613520562,42,84,37.5224243530929,6,14,315,0,0,29.566,0,0,0,54,52
2016-03-25 05:35:00,42,39.6289578822958,42,84,37.5224243530929,4,11,247.5,0,0,29.565,0,0,0,54.2,52
2016-03-25 05:40:00,41.9,38.7040666091967,41.9,84,37.4244588759104,5,10,270,0,0,29.566,0,0,0,54.3,52
2016-03-25 05:45:00,41.9,38.7040666091967,41.9,85,37.7253449183271,5,11,247.5,0,0,29.569,0,0,0,54.3,52
2016-03-25 05:50:00,41.9,38.7040666091967,41.9,85,37.7253449183271,5,10,270,0,0,29.568,0,0,0,54.5,52
2016-03-25 05:55:00,42,39.6289578822958,42,85,37.8234465186303,4,10,270,0,0,29.572,0,0,0,54.6,52
2016-03-25 06:00:00,42,38.8215224908217,42,85,37.8234465186303,5,13,270,0,0,29.572,2,0.001,0,54.6,52
2016-03-25 06:05:00,42,39.6289578822958,42,85,37.8234465186303,4,8,292.5,0,0,29.579,6,0,0,54.6,52
2016-03-25 06:10:00,42,42,42,85,37.8234465186303,3,9,315,0,0,29.581,8,0,0,54.5,52
2016-03-25 06:15:00,42,39.6289578822958,42,85,37.8234465186303,4,13,315,0,0,29.587,11,0,0,54.6,51
2016-03-25 06:20:00,42.1,42.1,42.1,85,37.9215476915156,2,6,315,0,0,29.586,14,0,0,54.9,51
2016-03-25 06:25:00,42.2,39.8599901442269,42.2,85,38.0196484369858,4,16,270,0,0,29.587,19,0,0,55.1,51
2016-03-25 06:30:00,42.2,42.2,42.2,84,37.7183539346977,1,6,315,0,0,29.59,24,0,0,55.1,51
2016-03-25 06:35:00,42.3,39.9755062751924,42.3,84,37.8163180391264,4,8,292.5,0,0,29.599,29,0,0,55.4,51
2016-03-25 06:40:00,42.4,42.4,42.4,84,37.914281685977,1,5,292.5,0,0,29.596,35,0,0,55.7,50
2016-03-25 06:45:00,42.5,42.5,42.5,84,38.0122448752526,3,8,315,0,0,29.6,42,0,0,56,50
2016-03-25 06:50:00,42.5,42.5,42.5,84,38.0122448752526,3,11,270,0,0,29.603,52,0,0,56,50
2016-03-25 06:55:00,42.6,40.3220546680891,42.6,84,38.1102076069565,4,9,270,0,0,29.609,63,0,0,56,50
2016-03-25 07:00:00,42.7,40.4375707990546,42.7,84,38.2081698810918,4,10,292.5,0,0,29.609,74,0.001,0.1,55.8,50
2016-03-25 07:05:00,42.7,42.7,42.7,84,38.2081698810918,3,7,292.5,0,0,29.613,95,0,0.5,56,50
2016-03-25 07:10:00,42.8,42.8,42.8,84,38.3061316976617,3,7,270,0,0,29.609,101,0,0.5,56.1,50
2016-03-25 07:15:00,43,43,43,84,38.5020539581184,3,8,225,0,0,29.616,143,0,0.6,56.3,50
2016-03-25 07:20:00,43.2,43.2,43.2,84,38.6979743883522,2,6,225,0,0,29.615,182,0,0.7,56.7,50
2016-03-25 07:25:00,43.4,43.4,43.4,84,38.8938929883887,2,9,247.5,0,0,29.616,148,0,0.7,57.1,49
2016-03-25 07:30:00,43.7,41.5927321087101,43.7,84,39.1877674568796,4,10,315,0,0,29.617,159,0,0.7,57.3,48
2016-03-25 07:35:00,43.9,41.0531842416973,43.9,83,39.0768616815321,5,11,292.5,0,0,29.614,168,0,0.7,57,49
2016-03-25 07:40:00,44.1,41.2880960049473,44.1,83,39.2724976994676,5,15,337.5,0,0,29.618,192,0,0.7,56.7,49
2016-03-25 07:45:00,44.3,42.2858288945033,44.3,83,39.4681317657495,4,10,225,0,0,29.617,193,0,0.8,56.5,49
2016-03-25 07:50:00,44.5,41.7579195314474,44.5,83,39.6637638804069,5,13,247.5,0,0,29.622,203,0,0.9,56.8,49
2016-03-25 07:55:00,44.9,44.9,44.9,82,39.7435276219302,2,9,315,0,0,29.625,217,0,0.9,56.7,49
2016-03-25 08:00:00,45.2,45.2,45.2,81,39.7212596540819,2,7,315,0,0,29.628,230,0.003,1,56.7,49
2016-03-25 08:05:00,45.3,43.4409902041588,45.3,80,39.4999080717106,4,9,270,0,0,29.63,242,0,1,57,49
2016-03-25 08:10:00,45.6,43.7875385970554,45.6,80,39.7920688960797,4,11,270,0,0,29.631,256,0,1.1,57.4,49
2016-03-25 08:15:00,45.6,43.7875385970554,45.6,80,39.7920688960797,4,8,270,0,0,29.634,271,0,1.1,57.6,49
2016-03-25 08:20:00,46,43.5197577558228,46,78,39.531120103577,5,11,292.5,0,0,29.64,286,0,1.2,57.9,48
2016-03-25 08:25:00,46.2,46.2,46.2,78,39.7253056385589,3,9,247.5,0,0,29.638,294,0,1.3,57.7,48
2016-03-25 08:30:00,46,43.5197577558228,46,77,39.2003400136088,5,10,270,0,0,29.634,309,0,1.3,57.9,48
2016-03-25 08:35:00,46.4,43.9895812823229,46.4,77,39.5881183603076,5,11,315,0,0,29.639,320,0,1.4,57.9,47
2016-03-25 08:40:00,46.7,44.341948927198,46.7,76,39.5433088055762,5,10,270,0,0,29.645,335,0,1.4,57.9,48
2016-03-25 08:45:00,47,47,47,75,39.4936736265367,3,8,270,0,0,29.642,348,0,1.5,58.2,47
2016-03-25 08:50:00,47.3,47.3,47.3,75,39.7835866891327,3,10,292.5,0,0,29.649,358,0,1.5,58.2,47
2016-03-25 08:55:00,47.5,45.9823450854007,47.5,74,39.6320637906104,4,10,292.5,0,0,29.648,369,0,1.5,58.2,46
2016-03-25 09:00:00,47.7,46.2133773473318,47.7,73,39.4757880852712,4,8,292.5,0,0,29.648,383,0.006,1.6,57.9,47
2016-03-25 09:05:00,47.8,47.8,47.8,73,39.5721137860444,3,9,247.5,0,0,29.649,395,0,1.6,58.2,47
2016-03-25 09:10:00,48.2,48.2,48.2,71,39.2445069872286,2,7,247.5,0,0,29.647,409,0,1.6,58.5,46
2016-03-25 09:15:00,48.6,48.6,48.6,71,39.6285288558398,3,7,292.5,0,0,29.644,417,0,1.7,59,46
2016-03-25 09:20:00,49,47.7150870498839,49,70,39.6481354716251,4,8,292.5,0,0,29.654,425,0,1.7,59.1,45
2016-03-25 09:25:00,49.2,49.2,49.2,69,39.4704657844796,1,5,247.5,0,0,29.648,437,0,1.8,59.3,45
2016-03-25 09:30:00,49.8,49.8,49.8,69,40.0445022040657,3,10,315,0,0,29.654,447,0,1.8,59.7,45
2016-03-25 09:35:00,49.5,48.2926677047116,49.5,68,39.3828948299405,4,8,292.5,0,0,29.655,456,0,1.9,59.9,44
2016-03-25 09:40:00,49.7,49.7,49.7,68,39.573909414809,1,5,270,0,0,29.653,466,0,2,59.9,44
2016-03-25 09:45:00,50.6,50.6,50.6,67,40.0521084323557,2,8,270,0,0,29.653,476,0,2,60,44
2016-03-25 09:50:00,50.9,50.9,50.9,64,39.1616918262365,4,8,292.5,0,0,29.651,482,0,2,60.5,43
2016-03-25 09:55:00,51.2,51.2,51.2,63,39.0426437119831,3,9,315,0,0,29.647,496,0,2.1,60.2,42
2016-03-25 10:00:00,51,51,51,62,38.4445506717178,3,7,292.5,0,0,29.649,496,0.009,2.1,60.2,42
2016-03-25 10:05:00,51.5,51.5,51.5,60,38.0796112911646,3,8,270,0,0,29.649,512,0,2.2,60.2,41
2016-03-25 10:10:00,51.9,51.9,51.9,59,38.0273324718232,4,9,292.5,0,0,29.649,523,0,2.2,60.5,41
2016-03-25 10:15:00,52.1,52.1,52.1,58,37.779662570477,4,10,292.5,0,0,29.649,530,0,2.3,60.3,40
2016-03-25 10:20:00,51.7,51.7,51.7,59,37.8395308407487,3,7,202.5,0,0,29.649,536,0,2.3,60.7,42
2016-03-25 10:25:00,51.8,51.8,51.8,60,38.361876147803,3,7,180,0,0,29.653,546,0,2.4,61.6,41
2016-03-25 10:30:00,52.5,52.5,52.5,59,38.5907061788827,3,10,225,0,0,29.647,556,0,2.4,61.9,41
2016-03-25 10:35:00,52.8,52.8,52.8,58,38.4355901159622,2,8,247.5,0,0,29.651,558,0,2.5,62.4,40
2016-03-25 10:40:00,52.8,52.8,52.8,57,37.9921078999904,5,10,315,0,0,29.651,562,0,2.5,62.2,38
2016-03-25 10:45:00,53,53,53,57,38.1791211276602,3,7,247.5,0,0,29.647,570,0,2.7,61.8,39
2016-03-25 10:50:00,53.5,53.5,53.5,56,38.194867907735,4,9,292.5,0,0,29.651,579,0,2.7,61.6,38
2016-03-25 10:55:00,53.9,53.9,53.9,56,38.5680727456806,3,9,225,0,0,29.649,585,0,2.8,61.8,39
2016-03-25 11:00:00,54.2,54.2,54.2,56,38.8479615239574,3,8,292.5,0,0,29.654,591,0.012,2.8,61.9,38
2016-03-25 11:05:00,53.4,53.4,53.4,57,38.5531310750576,5,11,247.5,0,0,29.655,648,0,2.9,62.1,39
2016-03-25 11:10:00,53.7,53.7,53.7,57,38.8336240921124,4,14,270,0,0,29.655,227,0,2.2,62.2,39
2016-03-25 11:15:00,53.7,53.7,53.7,58,39.2788292494946,5,9,270,0,0,29.66,604,0,2.7,62.1,40
2016-03-25 11:20:00,53.4,53.4,53.4,58,38.9977615724622,6,16,225,0,0,29.659,234,0,2.7,62.4,40
2016-03-25 11:25:00,54.1,54.1,54.1,57,39.207595525086,6,15,225,0,0,29.665,760,0,3.3,63,40
2016-03-25 11:30:00,53.3,53.3,53.3,57,38.4596306516251,8,18,225,0,0,29.661,709,0,3.3,63.6,40
2016-03-25 11:35:00,54.2,54.2,54.2,57,39.301084944883,4,10,247.5,0,0,29.659,668,0,3.1,63.6,39
2016-03-25 11:40:00,53.6,53.6,53.6,58,39.185141360868,6,10,315,0,0,29.662,241,0,2.5,63.3,38
2016-03-25 11:45:00,53.6,53.6,53.6,58,39.185141360868,4,11,270,0,0,29.657,239,0,1,62.9,39
2016-03-25 11:50:00,53.6,53.6,53.6,58,39.185141360868,4,11,202.5,0,0,29.658,241,0,1.5,63.2,39
2016-03-25 11:55:00,53.8,53.8,53.8,58,39.3725158011085,5,11,247.5,0,0,29.658,644,0,3.2,63.2,39
2016-03-25 12:00:00,54.9,54.9,54.9,57,39.9554723762621,5,20,270,0,0,29.665,735,0.012,3.2,63.3,39
2016-03-25 12:05:00,53.6,53.6,53.6,57,38.7401277952708,4,14,225,0,0,29.662,195,0,2,63.8,39
2016-03-25 12:10:00,53.2,53.2,53.2,58,38.8103764356619,4,10,247.5,0,0,29.664,225,0,2.7,64.1,38
2016-03-25 12:15:00,53.3,53.3,53.3,59,39.3417983619675,5,15,225,0,0,29.669,550,0,2.9,64.1,38
2016-03-25 12:20:00,54,54,54,57,39.1141047299407,4,11,202.5,0,0,29.669,652,0,3.1,64.3,38
2016-03-25 12:25:00,54,54,54,58,39.5598848934125,3,8,180,0,0,29.667,301,0,2,64.5,38
2016-03-25 12:30:00,53.4,53.4,53.4,59,39.4356790387014,5,14,202.5,0,0,29.665,229,0,1.7,64.8,38
2016-03-25 12:35:00,53.6,53.6,53.6,59,39.6234364950314,3,10,270,0,0,29.662,279,0,1.8,65.1,38
2016-03-25 12:40:00,53.8,53.8,53.8,59,39.8111887553572,4,13,225,0,0,29.66,269,0,1.7,65.3,38
2016-03-25 12:45:00,53.9,53.9,53.9,58,39.4662010157383,6,13,202.5,0,0,29.661,320,0,2,65.8,38
2016-03-25 12:50:00,53.6,53.6,53.6,58,39.185141360868,7,14,247.5,0,0,29.658,272,0,1.8,65.8,37
2016-03-25 12:55:00,53.5,53.5,53.5,57,38.6466301229294,7,13,270,0,0,29.665,296,0,2.4,65.4,35
2016-03-25 13:00:00,54.1,54.1,54.1,56,38.7546666787705,5,11,225,0,0,29.665,227,0.008,1.9,64.9,36
2016-03-25 13:05:00,53.6,53.6,53.6,59,39.6234364950314,5,12,270,0,0,29.663,306,0,2,64.6,37
2016-03-25 13:10:00,54,54,54,58,39.5598848934125,6,15,270,0,0,29.66,261,0,2.3,64.8,37
2016-03-25 13:15:00,53.8,53.8,53.8,57,38.9271190134843,5,13,247.5,0,0,29.662,211,0,2.2,64.8,36
2016-03-25 13:20:00,54.2,54.2,54.2,56,38.8479615239574,6,18,247.5,0,0,29.664,664,0,2.9,64.8,37
2016-03-25 13:25:00,54.7,54.7,54.7,55,38.8531067029739,7,19,225,0,0,29.663,700,0,2.8,64.9,36
2016-03-25 13:30:00,55.1,55.1,55.1,54,38.7558810630751,5,13,247.5,0,0,29.661,653,0,3,64.8,35
2016-03-25 13:35:00,55.9,55.9,55.9,53,39.0199548218138,5,12,270,0,0,29.664,645,0,2.9,64.5,36
2016-03-25 13:40:00,55.8,55.8,55.8,52,38.440513891285,9,16,225,0,0,29.658,691,0,2.9,64.8,36
2016-03-25 13:45:00,55.5,55.5,55.5,52,38.1631245507323,9,21,225,0,0,29.659,692,0,2.7,65.4,37
2016-03-25 13:50:00,55.5,55.5,55.5,50,37.165544289771,10,21,225,0,0,29.656,601,0,2.7,65.9,36
2016-03-25 13:55:00,55.6,55.6,55.6,50,37.2575843695502,6,15,225,0,0,29.657,586,0,2.6,65.9,34
2016-03-25 14:00:00,55.9,55.9,55.9,51,38.0376577054448,5,13,247.5,0,0,29.653,566,0.013,2.5,65.9,34
2016-03-25 14:05:00,55.7,55.7,55.7,50,37.3496227927164,8,20,225,0,0,29.65,512,0,2.3,65.8,35
2016-03-25 14:10:00,55.1,55.1,55.1,51,37.2996184557869,8,18,225,0,0,29.652,531,0,2.2,65.9,35
2016-03-25 14:15:00,55.2,55.2,55.2,50,36.8894141103085,7,15,225,0,0,29.649,494,0,2.2,65.8,35
2016-03-25 14:20:00,55,55,55,51,37.2073562820125,8,15,225,0,0,29.654,477,0,2.1,65.9,35
2016-03-25 14:25:00,55.3,55.3,55.3,50,36.9814591601949,7,16,225,0,0,29.654,537,0,2.2,66.2,34
2016-03-25 14:30:00,55.6,55.6,55.6,49,36.7452975321667,6,18,225,0,0,29.65,494,0,2.1,66.2,33
2016-03-25 14:35:00,55.9,55.9,55.9,48,36.4984886839767,4,11,202.5,0,0,29.651,489,0,2,66.1,33
2016-03-25 14:40:00,56,56,56,47,36.0578943264743,6,14,270,0,0,29.647,487,0,1.9,65.8,33
2016-03-25 14:45:00,56.2,56.2,56.2,48,36.7732662674226,5,11,180,0,0,29.644,453,0,1.8,65.6,33
2016-03-25 14:50:00,56.2,56.2,56.2,48,36.7732662674226,4,11,202.5,0,0,29.64,419,0,1.7,65.3,34
2016-03-25 14:55:00,56.4,56.4,56.4,48,36.9564426162362,4,16,180,0,0,29.64,408,0,1.6,65.4,33
2016-03-25 15:00:00,57,57,57,48,37.5059298743256,2,8,270,0,0,29.638,460,0.012,1.6,65.6,34
2016-03-25 15:05:00,56.7,56.7,56.7,48,37.2311940802244,6,14,270,0,0,29.636,468,0,1.5,65.6,32
2016-03-25 15:10:00,56.8,56.8,56.8,48,37.3227744192905,5,11,180,0,0,29.637,442,0,1.5,65.1,34
2016-03-25 15:15:00,56.5,56.5,56.5,48,37.0480281787469,7,15,225,0,0,29.638,441,0,1.4,65.4,34
2016-03-25 15:20:00,56.4,56.4,56.4,49,37.4798164060126,6,15,225,0,0,29.636,444,0,1.3,65.8,33
2016-03-25 15:25:00,56.5,56.5,56.5,49,37.5716236215993,7,18,225,0,0,29.639,411,0,1.3,65.9,34
2016-03-25 15:30:00,56.3,56.3,56.3,50,37.9018185453467,7,15,202.5,0,0,29.631,331,0,1.1,66.2,35
2016-03-25 15:35:00,56,56,56,50,37.6257281229848,7,14,225,0,0,29.631,294,0,0.9,66.6,35
2016-03-25 15:40:00,55.9,55.9,55.9,51,38.0376577054448,6,14,225,0,0,29.63,322,0,0.9,66.7,34
2016-03-25 15:45:00,56.1,56.1,56.1,51,38.2221513692651,8,14,225,0,0,29.627,351,0,0.9,67,35
2016-03-25 15:50:00,56.1,56.1,56.1,50,37.7177599201466,8,16,225,0,0,29.631,325,0,0.8,67.2,34
2016-03-25 15:55:00,56,56,56,50,37.6257281229848,7,14,225,0,0,29.626,331,0,0.8,67.2,34
2016-03-25 16:00:00,56.1,56.1,56.1,51,38.2221513692651,6,13,180,0,0,29.623,285,0.01,0.7,67,34
2016-03-25 16:05:00,56.2,56.2,56.2,51,38.3143957791192,3,8,157.5,0,0,29.617,276,0,0.6,67.4,34
2016-03-25 16:10:00,56.4,56.4,56.4,50,37.9938453734746,5,11,202.5,0,0,29.613,288,0,0.6,67.5,34
2016-03-25 16:15:00,56.8,56.8,56.8,50,38.3619361238815,4,11,202.5,0,0,29.613,283,0,0.5,67.9,34
2016-03-25 16:20:00,56.5,56.5,56.5,50,38.0858705453473,7,14,180,0,0,29.614,287,0,0.5,67.9,34
2016-03-25 16:25:00,56.7,56.7,56.7,50,38.2699159205061,4,11,202.5,0,0,29.611,239,0,0.1,68,34
2016-03-25 16:30:00,56.5,56.5,56.5,50,38.0858705453473,5,12,225,0,0,29.611,214,0,0,68,33
2016-03-25 16:35:00,56.6,56.6,56.6,50,38.1778940610096,5,14,225,0,0,29.609,224,0,0,68,34
2016-03-25 16:40:00,56.7,56.7,56.7,50,38.2699159205061,6,13,202.5,0,0,29.613,205,0,0,68,33
2016-03-25 16:45:00,56.5,56.5,56.5,51,38.5911193209667,8,16,202.5,0,0,29.61,186,0,0,68,34
2016-03-25 16:50:00,56.3,56.3,56.3,51,38.406638574326,6,12,202.5,0,0,29.612,167,0,0,68,33
2016-03-25 16:55:00,56.3,56.3,56.3,51,38.406638574326,7,15,202.5,0,0,29.611,109,0,0,67.9,34
2016-03-25 17:00:00,56.1,56.1,56.1,52,38.71788906922,6,15,202.5,0,0,29.614,111,0.007,0,67.9,34
2016-03-25 17:05:00,56,56,56,52,38.6254322501323,8,14,202.5,0,0,29.615,147,0,0,67.9,34
2016-03-25 17:10:00,55.9,55.9,55.9,53,39.0199548218138,8,18,225,0,0,29.612,143,0,0,67.9,34
2016-03-25 17:15:00,55.7,55.7,55.7,53,38.8346185552743,8,16,225,0,0,29.613,138,0,0,67.7,34
2016-03-25 17:20:00,55.7,55.7,55.7,54,39.3131507863987,7,16,202.5,0,0,29.613,126,0,0,67.7,35
2016-03-25 17:25:00,55.7,55.7,55.7,54,39.3131507863987,6,14,180,0,0,29.614,112,0,0,67.7,34
2016-03-25 17:30:00,55.7,55.7,55.7,53,38.8346185552743,6,15,225,0,0,29.612,86,0,0,67.5,34
2016-03-25 17:35:00,55.6,55.6,55.6,53,38.7419481225729,7,16,225,0,0,29.61,54,0,0,67.4,34
2016-03-25 17:40:00,55.4,55.4,55.4,54,39.0345226426086,9,16,225,0,0,29.611,52,0,0,67.4,35
2016-03-25 17:45:00,55.1,55.1,55.1,55,39.2254526522036,5,11,202.5,0,0,29.61,39,0,0,67.2,35
2016-03-25 17:50:00,54.9,54.9,54.9,56,39.5009858445809,4,11,202.5,0,0,29.613,28,0,0,67,35
2016-03-25 17:55:00,54.7,54.7,54.7,57,39.7685114147076,5,10,180,0,0,29.614,23,0,0,66.9,36
2016-03-25 18:00:00,54.5,54.5,54.5,58,40.0282842284532,6,16,202.5,0,0,29.612,19,0.004,0,66.9,36
2016-03-25 18:05:00,54.3,54.3,54.3,58,39.8409285049886,6,13,202.5,0,0,29.613,17,0,0,66.7,36
2016-03-25 18:10:00,54.1,54.1,54.1,58,39.6535674341599,8,19,202.5,0,0,29.614,15,0,0,66.4,36
2016-03-25 18:15:00,53.9,53.9,53.9,59,39.905062937086,6,18,180,0,0,29.61,12,0,0,66.1,36
2016-03-25 18:20:00,53.7,53.7,53.7,58,39.2788292494946,7,14,202.5,0,0,29.614,8,0,0,66.1,36
2016-03-25 18:25:00,53.5,53.5,53.5,59,39.5295584163804,6,13,202.5,0,0,29.614,3,0,0,65.9,36
2016-03-25 18:30:00,53.3,53.3,53.3,59,39.3417983619675,5,13,202.5,0,0,29.615,0,0,0,65.9,36
2016-03-25 18:35:00,53.2,53.2,53.2,59,39.2479163861517,6,11,202.5,0,0,29.615,0,0,0,65.9,36
2016-03-25 18:40:00,53,53,53,59,39.0601485371666,7,13,202.5,0,0,29.615,0,0,0,65.9,37
2016-03-25 18:45:00,52.8,52.8,52.8,59,38.8723754915302,5,11,180,0,0,29.616,0,0,0,65.9,36
2016-03-25 18:50:00,52.7,52.7,52.7,59,38.7784870199004,4,10,180,0,0,29.613,0,0,0,65.8,36
2016-03-25 18:55:00,52.5,52.5,52.5,59,38.5907061788827,5,9,202.5,0,0,29.612,0,0,0,65.8,36
2016-03-25 19:00:00,52.3,52.3,52.3,59,38.4029201406745,3,10,202.5,0,0,29.608,0,0.002,0,65.6,36
2016-03-25 19:05:00,52.2,52.2,52.2,60,38.7382116245662,3,11,180,0,0,29.607,0,0,0,65.6,36
2016-03-25 19:10:00,52.1,52.1,52.1,60,38.6441296480229,4,8,180,0,0,29.607,0,0,0,65.8,36
2016-03-25 19:15:00,51.9,51.9,51.9,60,38.4559619096667,4,8,180,0,0,29.605,0,0,0,65.6,36
2016-03-25 19:20:00,51.9,51.9,51.9,60,38.4559619096667,2,6,180,0,0,29.607,0,0,0,65.8,36
2016-03-25 19:25:00,51.8,51.8,51.8,61,38.784064202521,2,6,180,0,0,29.609,0,0,0,65.6,36
2016-03-25 19:30:00,51.7,51.7,51.7,61,38.6897941506689,3,11,180,0,0,29.608,0,0,0,65.4,37
2016-03-25 19:35:00,51.7,51.7,51.7,61,38.6897941506689,3,8,180,0,0,29.603,0,0,0,65.6,36
2016-03-25 19:40:00,51.5,51.5,51.5,61,38.5012503731921,2,7,180,0,0,29.604,0,0,0,65.8,37
2016-03-25 19:45:00,51.4,51.4,51.4,62,38.8223793040444,2,7,180,0,0,29.605,0,0,0,65.4,36
2016-03-25 19:50:00,51.4,51.4,51.4,62,38.8223793040444,2,8,135,0,0,29.609,0,0,0,65.4,37
2016-03-25 19:55:00,51.4,51.4,51.4,62,38.8223793040444,2,10,157.5,0,0,29.606,0,0,0,65.4,37
2016-03-25 20:00:00,51.4,51.4,51.4,62,38.8223793040444,3,10,180,0,0,29.602,0,0.002,0,65.6,37
2016-03-25 20:05:00,51.3,51.3,51.3,63,39.137278284805,3,8,157.5,0,0,29.599,0,0,0,65.6,37
2016-03-25 20:10:00,51.3,51.3,51.3,63,39.137278284805,2,7,157.5,0,0,29.604,0,0,0,65.4,36
2016-03-25 20:15:00,51.2,51.2,51.2,63,39.0426437119831,2,8,202.5,0,0,29.603,0,0,0,65.1,37
2016-03-25 20:20:00,51.2,51.2,51.2,63,39.0426437119831,2,7,135,0,0,29.604,0,0,0,64.9,37
2016-03-25 20:25:00,51,51,51,63,38.8533711124065,3,11,157.5,0,0,29.604,0,0,0,64.8,37
2016-03-25 20:30:00,50.9,50.9,50.9,64,39.1616918262365,1,5,157.5,0,0,29.606,0,0,0,64.9,37
2016-03-25 20:35:00,50.8,50.8,50.8,64,39.0668770955703,2,6,135,0,0,29.608,0,0,0,64.9,38
2016-03-25 20:40:00,50.7,50.7,50.7,64,38.9720612496654,3,7,157.5,0,0,29.605,0,0,0,64.9,38
2016-03-25 20:45:00,50.6,50.6,50.6,65,39.2741661262279,1,7,157.5,0,0,29.599,0,0,0,64.9,37
2016-03-25 20:50:00,50.6,50.6,50.6,65,39.2741661262279,2,8,157.5,0,0,29.601,0,0,0,64.9,38
2016-03-25 20:55:00,50.6,50.6,50.6,65,39.2741661262279,3,8,157.5,0,0,29.595,0,0,0,65.1,38
2016-03-25 21:00:00,50.6,50.6,50.6,65,39.2741661262279,3,9,157.5,0,0,29.592,0,0.001,0,65.4,38
2016-03-25 21:05:00,50.6,50.6,50.6,66,39.6657367658045,2,8,157.5,0,0,29.593,0,0,0,65.4,38